Regional Weather Roundup
Issued by NWS

Home | Current Version | Previous Version | Text Only | Print | Product List | Glossary Off
Versions: 1 2 3 4 5 6 7 8 9 10 11 12 13 14 15 16 17 18 19 20 21 22 23 24 25 26 27 28 29 30 31 32 33 34 35 36 37 38 39 40 41 42 43 44 45 46 47 48 49 50

000
ASUS43 KMPX 220910
RWRMN
WEATHER ROUNDUP FOR MINNESOTA
NATIONAL WEATHER SERVICE TWIN CITIES/CHANHASSEN MN
400 AM CDT SAT JUL 22 2017


NOTE: "FAIR" INDICATES FEW OR NO CLOUDS BELOW 12,000 FEET WITH NO
SIGNIFICANT WEATHER AND/OR OBSTRUCTIONS TO VISIBILITY. N/A MEANS
CURRENT SKY AND/OR WEATHER CONDITIONS ARE NOT AVAILABLE.

MNZ060>063-068>070-221000-
   Twin Cities Metro

CITY           SKY/WX    TMP DP  RH WIND       PRES   REMARKS
TWIN CITIES    CLOUDY    72  65  78 SW3       29.76F
ST PAUL        CLOUDY    71  67  87 CALM      29.76F
CRYSTAL        CLOUDY    71  63  75 S3        29.76R
BLAINE         CLOUDY    70  64  83 CALM      29.78R
LAKEVILLE      CLOUDY    66  66 100 S7        29.77F
EDEN PRAIRIE   CLOUDY    71  66  84 SW7       29.76F
SOUTH ST PAUL  CLOUDY    70  65  84 NE5       29.76F
LAKE ELMO      FAIR      68  64  88 N3        29.78F
$$
MNZ001>005-007-008-013>017-022>024-027-028-221000-
   Northwest Minnesota

CITY           SKY/WX    TMP DP  RH WIND       PRES   REMARKS
BEMIDJI        CLOUDY    63  63  99 W5        29.84R
HALLOCK        CLOUDY    64  63  94 S8        29.75F
ROSEAU         RAIN      63  57  82 NW3       29.84R
WARROAD        RAIN      64  61  88 CALM      29.82S
THIEF RVR FALL CLOUDY    64  64 100 S7        29.81F
CROOKSTON      CLOUDY    68  66  94 CALM      29.81R
FOSSTON        RAIN      64  63  94 W6        29.89R
DETROIT LAKES  CLOUDY    70  64  83 NW20G25   29.84R THUNDER
MOORHEAD       TSTM      66  64  94 CALM      29.84S
PARK RAPIDS    PTCLDY    65  62  90 N8        29.79R
MAHNOMEN       CLOUDY    65  64  93 NW12G22   29.84R
$$
MNZ006-009>011-018-025>026-221000-
   North Central Minnesota

CITY           SKY/WX    TMP DP  RH WIND       PRES   REMARKS
BAUDETTE       CLOUDY    61  59  93 E6        29.79F
FLAG ISLAND    CLOUDY    66  59  77 CALM      29.79R HAZE
INTL FALLS     PTCLDY    55  53  93 CALM      29.81S FOG
BIG FORK       CLOUDY    63  61  94 CALM      29.80F
LONGVILLE      CLOUDY    63  63 100 CALM      29.79S FOG
GRAND RAPIDS   CLOUDY    63  63 100 CALM      29.82R
CRANE LAKE     CLOUDY    52  52 100 CALM      29.84R FOG
ORR            PTCLDY    54  50  87 CALM      29.79F FOG
COOK           CLOUDY    54  54 100 CALM      29.83R FOG
WALKER         FAIR      61  60  99 CALM      29.80R FOG
$$
MNZ012-019>021-037-221000-
   Northeast Minnesota

CITY           SKY/WX    TMP DP  RH WIND       PRES   REMARKS
DULUTH         FOG       61  61 100 SE5       29.82R VSB 1/2
ELY            PTCLDY    54  52  94 CALM      29.83S
HIBBING        FOG       59  59 100 CALM      29.82R VSB 1/4
EVELETH        CLOUDY    60  57  91 CALM      29.83R
DULUTH HARBOR  CLOUDY    63  57  82 E7        29.82R
TWO HARBORS    CLOUDY    61  55  82 N3        29.81R
SILVER BAY     CLEAR     61  55  82 NE6       29.81S
GRAND MARAIS     N/A     68  52  56 NE7       29.80R
G MARAIS ARPRT CLOUDY    57  46  67 N8        29.86S
$$
MNZ029>031-032-039>041-046>048-054>057-064-221000-
   West Central Minnesota

CITY           SKY/WX    TMP DP  RH WIND       PRES   REMARKS
FERGUS FALLS   CLOUDY    66  66 100 SW3       29.77F THUNDER
WHEATON        PTCLDY    70  66  88 CALM      29.80R
MORRIS         CLOUDY    72  70  94 S6        29.77R
ALEXANDRIA     MOCLDY    69  67  93 SW8       29.81S
ELBOW LAKE     FAIR      66  66  97 SE5       29.79S
WADENA         CLOUDY    66  66 100 W5        29.78S
GLENWOOD       CLOUDY    68  66  94 SW5       29.82R
APPLETON       CLOUDY    72  66  83 SE6       29.74F
BENSON         CLOUDY    70  66  88 S5        29.78F
ORTONVILLE     CLOUDY    70  66  88 SW7       29.75F
MADISON        CLOUDY    73  73 100 S5        29.77F
WILLMAR        FAIR      72  70  94 CALM      29.81R
$$
MNZ033>034-036-042>043-049>051-058-059-221000-
   Central Minnesota

CITY           SKY/WX    TMP DP  RH WIND       PRES   REMARKS
ST CLOUD       CLOUDY    67  66  97 SW7       29.77S
SAUK CENTRE    FAIR      66  65  99 SW5       29.80S
PAYNESVILLE    CLOUDY    71  68  91 S7        29.80R
AITKIN         FOG       61  57  88 CALM      29.77F VSB 1/4
PINE RIVER     FOG       61  61 100 CALM      29.83R VSB 1/4
BRAINERD       FOG       62  62 100 E3        29.78S VSB 1
STAPLES        CLOUDY    64  63  94 CALM      29.78R
LONG PRAIRIE   FAIR      64  64 100 S6        29.80R
LITTLE FALLS   MOCLDY    64  63  94 CALM      29.78R
LITCHFIELD     LGT RAIN  72  70  94 S5        29.81S
BUFFALO        CLOUDY    70  65  84 S8        29.79R
MAPLE LAKE     CLOUDY    71  68  90 SW6       29.80R
HUTCHINSON     CLOUDY    70  68  93 S6        29.82R
$$
MNZ037-044-045-052-053-221000-
   East Central Minnesota

CITY           SKY/WX    TMP DP  RH WIND       PRES   REMARKS
PRINCETON      CLOUDY    66  64  94 CALM      29.79R
MORA           MOCLDY    63  63 100 CALM      29.80F
CAMBRIDGE      CLOUDY    66  64  94 CALM      29.77R
RUSH CITY      CLOUDY    64  62  96 CALM      29.77F
MOOSE LAKE     CLOUDY    59  57  94 CALM      29.80R FOG
HINCKLEY         N/A     63  63 100 CALM      29.80R
CLOQUET        FOG       63  59  88 CALM      29.82R VSB<1/4
MCGREGOR       CLOUDY    63  61  94 CALM      29.80S
$$
MNZ071>073-080-081-089-090-097-098-221000-
   Southwest Minnesota

CITY           SKY/WX    TMP DP  RH WIND       PRES   REMARKS
MONTEVIDEO     CLOUDY    70  68  94 CALM      29.76F
GRANITE FALLS  CLOUDY    72  68  86 E3        29.78F
CANBY          CLOUDY    71  69  92 CALM      29.79S
MARSHALL       CLOUDY    71  68  90 S21       29.76F
REDWOOD FALLS  LGT RAIN  70  67  90 SE7       29.78F
OLIVIA         LGT RAIN  70  66  88 S8        29.77F
PIPESTONE      CLOUDY    70  66  88 S16G24    29.78F
WINDOM         LGT RAIN  70  68  94 W17       29.93R
WORTHINGTON    LGT RAIN  71  70  96 W13       29.91R
JACKSON        CLOUDY    72  70  94 CALM      29.88R FOG
SLAYTON        RAIN      70  67  90 NW14G20   29.95R
$$
MNZ065>067-074>077-082>085-091>093-221000-
   South Central Minnesota

CITY           SKY/WX    TMP DP  RH WIND       PRES   REMARKS
MANKATO        CLOUDY    68  66  94 S8        29.82F
NEW ULM        LGT RAIN  70  66  88 S7        29.82F
ST JAMES       CLOUDY    70  68  94 CALM      29.85S
FAIRMONT       CLOUDY    71  69  93 NE5       29.83R
GLENCOE        CLOUDY    70  69  97 S7        29.79F
FARIBAULT      MOCLDY    70  66  88 S13       29.79F
OWATONNA       CLOUDY    70  66  88 CALM      29.81F
WASECA         CLOUDY    70  68  94 CALM      29.84R
ALBERT LEA     CLOUDY    70  68  94 E5        29.80S
$$
MNZ078>079-086>088-094>096-221000-
   Southeast Minnesota

CITY           SKY/WX    TMP DP  RH WIND       PRES   REMARKS
ROCHESTER      FOG       68  68 100 S7        29.79S VSB 1/2
RED WING       MOCLDY    72  66  83 E6        29.76S
STANTON        CLOUDY    70  66  89 S8        29.76F
DODGE CENTER   CLOUDY    68  66  94 S5        29.80S FOG
WINONA         CLOUDY    70  68  94 CALM      29.76F
AUSTIN         CLOUDY    70  66  88 SE5       29.80S FOG
PRESTON        FOG       68  67  95 S6        29.78F VSB 1
$$
ABBREVIATIONS USED IN REMARKS
   TC - TEMPERATURES IN CELSIUS
  WCI - WIND CHILL INDEX
   HX - HEAT INDEX
  VSB - VISIBILITY
$$



USA.gov is the U.S. government's official web portal to all federal, state and local government web resources and services.